Regional Weather Roundup
Issued by NWS

Home | Current Version | Previous Version | Text Only | Print | Product List | Glossary On
Versions: 1 2 3 4 5 6 7 8 9 10 11 12 13 14 15 16 17 18 19 20 21 22 23 24 25 26 27 28 29 30 31 32 33 34 35 36 37 38 39 40 41 42 43 44 45 46 47 48 49 50
778
ASUS43 KOAX 230203
RWRNE

WEATHER ROUNDUP FOR NEBRASKA
NATIONAL WEATHER SERVICE OMAHA NE
900 PM CDT TUE MAY 22 2018

NOTES: SATELLITE DATA IS BEING USED TO AUGMENT CLOUD COVER ABOVE
       12000 FEET.
       "FAIR" INDICATES FEW OR NO CLOUDS BELOW 12,000 FEET WITH NO
       SIGNIFICANT WEATHER AND/OR OBSTRUCTIONS TO VISIBILITY.


NEZ001>004-019>022-054>056-230300-
NEBRASKA PANHANDLE

CITY           SKY/WX    TMP DP  RH WIND       PRES   REMARKS
SCOTTSBLUFF    MOCLDY    71  59  65 SE8       29.86R
ALLIANCE       PTCLDY    68  58  70 SE12      29.88R
CHADRON        MOCLDY    66  56  70 NE14      29.88S
GORDON         FAIR      71  56  59 SE5       29.91R
KIMBALL        MOCLDY    66  52  61 E7        29.90S
SIDNEY         PTCLDY    68  53  58 SE12      29.89S
$$

NEZ057>060-069>072-079>082-230300-
SOUTHWEST NEBRASKA

CITY           SKY/WX    TMP DP  RH WIND       PRES   REMARKS
NORTH PLATTE   PTCLDY    75  56  51 SE13      29.89R
IMPERIAL       MOCLDY    71  54  54 SE10      29.88R
LEXINGTON      CLOUDY    74  61  61 S14G25    29.93R
MCCOOK         PTCLDY    70  59  68 SE9       29.89R
OGALLALA       MOCLDY    74  55  50 SE5       29.88R
$$

NEZ005>010-023>029-035>040-094-230300-
NORTH CENTRAL NEBRASKA

CITY           SKY/WX    TMP DP  RH WIND       PRES   REMARKS
VALENTINE      MOCLDY    77  60  55 SE9       29.90R
AINSWORTH      MOCLDY    72  64  74 SE6       29.92R
BROKEN BOW     PTCLDY    75  55  49 S18G31    29.92R
O`NEILL        MOCLDY    78  65  63 E5        29.91R
ORD            PTCLDY    77  64  64 SE7       29.88R
THEDFORD       MOCLDY    75  64  68 E8        29.91R
$$

NEZ041-046>049-061>064-073>077-083>087-230300-
SOUTH CENTRAL NEBRASKA

CITY           SKY/WX    TMP DP  RH WIND       PRES   REMARKS
GRAND ISLAND   MOCLDY    78  61  55 S10       29.92R
AURORA         PTCLDY    79  59  49 S10       29.92R
HASTINGS       PTCLDY    79  61  53 S8        29.93R
HEBRON         CLOUDY    79  62  54 SE9       29.93R
HOLDREGE       CLOUDY    77  62  59 SE13      29.91R
KEARNEY        CLOUDY    77  63  61 SE15      29.92R
YORK           PTCLDY    77  61  57 S8        29.93R
$$

NEZ011>018-030>034-042>045-230300-
NORTHEAST NEBRASKA

CITY           SKY/WX    TMP DP  RH WIND       PRES   REMARKS
NORFOLK        CLOUDY    75  64  68 S7        29.88S
ALBION         PTCLDY    77  63  62 S7        29.91R
COLUMBUS       PTCLDY    79  62  56 SE7       29.92R
FREMONT        PTCLDY    79  66  65 SE8       29.93R
TEKAMAH        CLOUDY    74  66  76 SE10      29.92R
WAYNE          MOCLDY    74  73  96 E10       29.91R
$$

NEZ050>053-065>068-078-088>093-230300-
SOUTHEAST NEBRASKA

CITY           SKY/WX    TMP DP  RH WIND       PRES   REMARKS
LINCOLN        CLEAR     79  62  56 S10       29.93R
OMAHA EPPLEY   PTCLDY    79  63  57 SE14      29.93R
BEATRICE       CLEAR     81  64  55 S12       29.95R
FALLS CITY     CLEAR     80  61  52 S8        29.96R
NEBRASKA CITY  PTCLDY    77  62  58 S8        29.96R
PLATTSMOUTH    CLOUDY    78  63  60 S6        29.96R
$$

NEZ044-045-051>053-067-230300-
OMAHA AREA

CITY           SKY/WX    TMP DP  RH WIND       PRES   REMARKS
OMAHA EPPLEY   PTCLDY    79  63  57 SE14      29.93R
FREMONT        PTCLDY    79  66  65 SE8       29.93R
MILLARD        PTCLDY    79  67  66 SE3       29.93R
OFFUTT AFB     MOCLDY    75  65  71 SE7       29.93R
PLATTSMOUTH    CLOUDY    78  63  60 S6        29.96R
WAHOO          FAIR      78  59  52 SE9       29.93R
$$




USA.gov is the U.S. government's official web portal to all federal, state and local government web resources and services.